Flag for Norway Weather past 2 weeks in Sandefjord, Norway

Now
59 °F

Sunny.


Feels Like: 59 °F
Forecast: 54 / 67 °F
Wind: 2 mph from South

Location: Torp

Current Time: Jul 2, 2015 at 6:33:28 AM

Latest Report: Jul 2, 2015 at 5:50 AM


Visibility: 10 mi

Pressure: 30.33 "Hg

Humidity: 88%

Dew point: 55 °F

Location of SandefjordLocation

Historic Weather in Sandefjord — Graph

°F

Sandefjord temperature yesterday

Maximum temperature yesterday: 73 °F (at 2:50 PM)
Minimum temperature yesterday: 55 °F (at 3:20 AM)
Average temperature yesterday: 65 °F

Past Weeks' High & Low Weather Summary

 TemperatureHumidityPressure
High73 °F (Jul 1, 2:50 PM)100% (Jun 17, 1:20 PM)30.33 "Hg (Jun 17, 1:20 PM)
Low46 °F (Jun 25, 3:20 AM)38% (Jun 20, 1:50 PM)29.59 "Hg (Jun 18, 4:50 AM)
Average58 °F74%29.87 "Hg
* Reported Jun 17 4:20 AM — Jul 2 4:50 AM, Sandefjord, Weather by CustomWeather, © 2015

Note: Actual official high and low records may vary slightly from our data, if they occured in-between our weather recording intervals... More about our weather records

Advertising

Sandefjord weather history for previous 24 hours

 ConditionsComfort  
Time TempWeatherWind HumidityBarometerVisibility
4:50 AM
Thu, Jul 2
55 °FCool.5 mph94%30.33 "HgN/A
4:20 AM55 °FCool.3 mph94%30.30 "HgN/A
3:50 AM57 °FCool.3 mph82%30.30 "HgN/A
3:20 AM59 °FCool.3 mph77%30.30 "HgN/A
2:50 AM57 °FCool.5 mph82%30.30 "HgN/A
2:20 AM59 °FCool.5 mph82%30.30 "HgN/A
1:50 AM59 °FCool.6 mph82%30.30 "HgN/A
1:20 AM59 °FCool.6 mph82%30.30 "HgN/A
12:50 AM59 °FCool.5 mph88%30.30 "HgN/A
12:20 AM59 °FCool.5 mph88%30.30 "HgN/A
11:50 PM
Wed, Jul 1
59 °FCool.6 mph82%30.30 "HgN/A
10:50 PM61 °FSunny.7 mph83%30.30 "Hg10 mi
10:20 PM61 °FSunny.9 mph77%30.27 "Hg10 mi
9:50 PM63 °FSunny.9 mph68%30.27 "Hg10 mi
9:20 PM64 °FSunny.9 mph64%30.27 "Hg10 mi
8:50 PM66 °FSunny.9 mph56%30.27 "Hg10 mi
8:20 PM68 °FSunny.9 mph56%30.27 "Hg10 mi
7:50 PM68 °FSunny.10 mph56%30.24 "Hg10 mi
7:20 PM70 °FSunny.13 mph53%30.24 "Hg10 mi
6:50 PM70 °FClear.13 mph57%30.24 "HgN/A
6:20 PM72 °FSunny.13 mph57%30.24 "Hg10 mi
5:50 PM70 °FSunny.13 mph53%30.24 "Hg10 mi
5:20 PM72 °FSunny.13 mph50%30.24 "Hg10 mi
4:50 PM72 °FSunny.13 mph53%30.24 "Hg10 mi
4:20 PM72 °FSunny.12 mph53%30.24 "Hg10 mi
3:50 PM73 °FSunny.12 mph47%30.24 "Hg10 mi
3:20 PM72 °FSunny.14 mph50%30.24 "Hg10 mi
2:50 PM73 °FSunny.14 mph50%30.24 "Hg10 mi
2:20 PM72 °FSunny.12 mph57%30.24 "Hg10 mi
1:50 PM72 °FSunny.12 mph53%30.24 "Hg10 mi
1:20 PM70 °FSunny.12 mph60%30.24 "Hg10 mi
12:50 PM70 °FSunny.12 mph64%30.24 "Hg10 mi
12:20 PM70 °FPassing clouds.9 mph69%30.24 "HgN/A
11:50 AM68 °FSunny.9 mph69%30.24 "Hg10 mi
11:20 AM70 °FPassing clouds.7 mph64%30.24 "HgN/A
10:50 AM70 °FPassing clouds.5 mph69%30.24 "HgN/A
10:20 AM68 °FPassing clouds.5 mph73%30.24 "HgN/A
9:50 AM68 °FPassing clouds.6 mph64%30.21 "HgN/A
9:20 AM68 °FSunny.5 mph73%30.21 "Hg10 mi
8:50 AM66 °FPassing clouds.3 mph68%30.21 "HgN/A
8:20 AM66 °FPassing clouds.3 mph73%30.21 "HgN/A
7:50 AM64 °FSunny.2 mph73%30.21 "Hg10 mi
7:20 AM61 °FPassing clouds.3 mph88%30.21 "HgN/A
6:50 AM61 °FSunny.5 mph88%30.21 "Hg10 mi
6:20 AM59 °FSunny.5 mph94%30.18 "Hg10 mi
Weather by CustomWeather, © 2015

See weather overviewHow to use our weather pages